KE0WPC Weather Reports


Display with metric or nautical units.
time (UTC)temp
F
wind
direction
speed
MPH
gust
MPH
rain 1hr
in
rain 24hr
in
rain mn
in
humidity
%
barometer
mb
20260906191833 69 0.0 0.0 0.00 0.00 0.00 86 1020.8
20260906191332 70 0.0 0.0 0.00 0.00 0.00 84 1020.8
20260906190827 71 0.0 0.0 0.00 0.00 0.00 82 1020.5
20260906190326 72 0.0 0.0 0.00 0.00 0.00 81 1020.5
20260906185821 73 0.0 0.0 0.00 0.00 0.00 79 1019.4
20260906185320 76 0.0 0.0 0.00 0.00 0.00 74 1019.4
20260906184814 78 0.0 0.0 0.00 0.00 0.00 82 1019.0
20260906184310 78 0.0 0.0 0.00 0.00 0.00 82 1018.7
20260906183805 79 0.0 0.0 0.00 0.00 0.00 82 1018.7
20260906183301 79 0.0 0.0 0.00 0.00 0.00 82 1019.0
20260906182801 79 0.0 0.0 0.00 0.00 0.00 81 1019.0
20260906182257 80 0.0 0.0 0.00 0.00 0.00 80 1018.7
20260906181752 80 0.0 0.0 0.00 0.00 0.00 79 1018.7
20260906181248 80 0.0 0.0 0.00 0.00 0.00 78 1018.7
20260906180743 80 0.0 0.0 0.00 0.00 0.00 77 1019.0
20260906180238 81 0.0 0.0 0.00 0.00 0.00 77 1019.0
20260906175736 81 0.0 0.0 0.00 0.00 0.00 76 1019.0
20260906175232 81 0.0 0.0 0.00 0.00 0.00 77 1019.0
20260906174729 81 0.0 0.0 0.00 0.00 0.00 77 1018.7
20260906174224 81 0.0 0.0 0.00 0.00 0.00 77 1019.0
20260906173719 81 0.0 0.0 0.00 0.00 0.00 78 1019.0
20260906173214 81 0.0 0.0 0.00 0.00 0.00 79 1019.0
20260906172714 81 0.0 0.0 0.00 0.00 0.00 80 1019.4
20260906172209 80 0.0 0.0 0.00 0.00 0.00 82 1019.4
20260906171704 80 0.0 0.0 0.00 0.00 0.00 84 1019.4
20260906171200 80 0.0 0.0 0.00 0.00 0.00 84 1019.4
20260906170656 80 0.0 0.0 0.00 0.00 0.00 84 1019.4
20260906170156 79 0.0 0.0 0.00 0.00 0.00 85 1019.0
20260906165652 79 0.0 0.0 0.00 0.00 0.00 85 1019.4
20260906165147 79 0.0 0.0 0.00 0.00 0.00 86 1019.4
20260906164646 78 0.0 0.0 0.00 0.00 0.00 88 1019.0
20260906164141 78 0.0 0.0 0.00 0.00 0.00 88 1019.4
20260906163637 77 0.0 0.0 0.00 0.00 0.00 88 1019.0
20260906163133 77 0.0 0.0 0.00 0.00 0.00 87 1019.0
20260906162630 77 0.0 0.0 0.00 0.00 0.00 87 1019.0
20260906162129 77 0.0 0.0 0.00 0.00 0.00 87 1019.4
20260906161624 78 0.0 0.0 0.00 0.00 0.00 87 1019.0
20260906161123 78 0.0 0.0 0.00 0.00 0.00 88 1019.0
20260906160622 78 0.0 0.0 0.00 0.00 0.00 88 1018.7
20260906160121 77 0.0 0.0 0.00 0.00 0.00 88 1018.2
20260906155619 77 0.0 0.0 0.00 0.00 0.00 88 1018.2
20260906155115 77 0.0 0.0 0.00 0.00 0.00 88 1018.7
20260906154610 77 0.0 0.0 0.00 0.00 0.00 89 1018.2
20260906154109 77 0.0 0.0 0.00 0.00 0.00 89 1018.2
20260906153608 77 0.0 0.0 0.00 0.00 0.00 89 1018.2
20260906153103 77 0.0 0.0 0.00 0.00 0.00 89 1018.2
20260906152603 77 0.0 0.0 0.00 0.00 0.00 89 1018.7
20260906152057 77 0.0 0.0 0.00 0.00 0.00 89 1018.7
20260906151552 77 0.0 0.0 0.00 0.00 0.00 89 1018.7
20260906151048 77 0.0 0.0 0.00 0.00 0.00 89 1019.0
20260906150543 77 0.0 0.0 0.00 0.00 0.00 89 1018.7
20260906150038 77 0.0 0.0 0.00 0.00 0.00 90 1018.7
20260906145536 77 0.0 0.0 0.00 0.00 0.00 89 1018.7
20260906145032 77 0.0 0.0 0.00 0.00 0.00 89 1018.7
20260906144520 76 0.0 0.0 0.00 0.00 0.00 90 1018.7
20260906144016 76 0.0 0.0 0.00 0.00 0.00 90 1018.2
20260906143511 76 0.0 0.0 0.00 0.00 0.00 90 1018.7
20260906143007 76 0.0 0.0 0.00 0.00 0.00 90 1018.2
20260906142501 76 0.0 0.0 0.00 0.00 0.00 90 1018.2
20260906141956 76 0.0 0.0 0.00 0.00 0.00 90 1018.7
20260906141455 76 0.0 0.0 0.00 0.00 0.00 91 1018.7
20260906140950 76 0.0 0.0 0.00 0.00 0.00 91 1018.2
20260906140444 76 0.0 0.0 0.00 0.00 0.00 92 1018.7
20260906135937 76 0.0 0.0 0.00 0.00 0.00 92 1018.2
20260906135436 76 0.0 0.0 0.00 0.00 0.00 93 1018.7
20260906134932 76 0.0 0.0 0.00 0.00 0.00 93 1018.2
20260906134427 75 0.0 0.0 0.00 0.00 0.00 93 1018.2
20260906133922 75 0.0 0.0 0.00 0.00 0.00 94 1018.2
20260906133418 75 0.0 0.0 0.00 0.00 0.00 94 1018.7
20260906132913 75 0.0 0.0 0.00 0.00 0.00 95 1018.7
20260906132409 75 0.0 0.0 0.00 0.00 0.00 95 1018.7
20260906131903 75 0.0 0.0 0.00 0.00 0.00 95 1018.7
20260906131359 75 0.0 0.0 0.00 0.00 0.00 96 1018.7
20260906130855 75 0.0 0.0 0.00 0.00 0.00 96 1018.7
20260906130354 75 0.0 0.0 0.00 0.00 0.00 96 1018.7
20260906125853 75 0.0 0.0 0.00 0.00 0.00 96 1018.7
20260906125350 75 0.0 0.0 0.00 0.00 0.00 96 1018.7
20260906124845 75 0.0 0.0 0.00 0.00 0.00 96 1018.7
20260906124341 74 0.0 0.0 0.00 0.00 0.00 97 1018.7
20260906123840 74 0.0 0.0 0.00 0.00 0.00 97 1018.2
20260906123335 74 0.0 0.0 0.00 0.00 0.00 97 1018.2
20260906122834 74 0.0 0.0 0.00 0.00 0.00 97 1018.2
20260906122324 74 0.0 0.0 0.00 0.00 0.00 97 1018.2
20260906121821 74 0.0 0.0 0.00 0.00 0.00 97 1018.2
20260906121317 74 0.0 0.0 0.00 0.00 0.00 97 1017.9
20260906120813 74 0.0 0.0 0.00 0.00 0.00 97 1018.2
20260906120308 74 0.0 0.0 0.00 0.00 0.00 97 1017.9
20260906115804 74 0.0 0.0 0.00 0.00 0.00 97 1018.2
20260906115254 74 0.0 0.0 0.00 0.00 0.00 97 1017.6
20260906114753 74 0.0 0.0 0.00 0.00 0.00 97 1017.9
20260906114249 74 0.0 0.0 0.00 0.00 0.00 97 1017.9
20260906113744 74 0.0 0.0 0.00 0.00 0.00 97 1017.9
20260906113243 74 0.0 0.0 0.00 0.00 0.00 97 1017.9
20260906112743 74 0.0 0.0 0.00 0.00 0.00 96 1017.6
20260906112239 74 0.0 0.0 0.00 0.00 0.00 96 1017.6
20260906111739 74 0.0 0.0 0.00 0.00 0.00 96 1017.9
20260906111233 74 0.0 0.0 0.00 0.00 0.00 96 1017.9
20260906110728 74 0.0 0.0 0.00 0.00 0.00 95 1017.6
20260906110219 74 0.0 0.0 0.00 0.00 0.00 95 1017.9
20260906105717 74 0.0 0.0 0.00 0.00 0.00 95 1017.9
20260906105214 73 0.0 0.0 0.00 0.00 0.00 96 1017.9
20260906104713 73 0.0 0.0 0.00 0.00 0.00 96 1017.9
20260906104213 73 0.0 0.0 0.00 0.00 0.00 95 1017.9
20260906103710 73 0.0 0.0 0.00 0.00 0.00 95 1017.9
20260906103205 73 0.0 0.0 0.00 0.00 0.00 95 1017.6
20260906102701 74 0.0 0.0 0.00 0.00 0.00 94 1017.6
20260906102200 74 0.0 0.0 0.00 0.00 0.00 95 1017.6
20260906101659 74 0.0 0.0 0.00 0.00 0.00 95 1017.9
20260906101155 74 0.0 0.0 0.00 0.00 0.00 94 1017.6
20260906100650 74 0.0 0.0 0.00 0.00 0.00 94 1017.9
20260906100145 73 0.0 0.0 0.00 0.00 0.00 95 1017.6
20260906095640 73 0.0 0.0 0.00 0.00 0.00 94 1017.9
20260906095135 74 0.0 0.0 0.00 0.00 0.00 93 1017.6
20260906094634 74 0.0 0.0 0.00 0.00 0.00 94 1017.9
20260906094130 74 0.0 0.0 0.00 0.00 0.00 95 1017.9
20260906093626 74 0.0 0.0 0.00 0.00 0.00 95 1017.6
20260906093126 74 0.0 0.0 0.00 0.00 0.00 95 1017.9
20260906092621 74 0.0 0.0 0.00 0.00 0.00 95 1017.6
20260906092116 74 0.0 0.0 0.00 0.00 0.00 95 1017.9
20260906091612 74 0.0 0.0 0.00 0.00 0.00 94 1018.2
20260906091109 74 0.0 0.0 0.00 0.00 0.00 95 1018.2
20260906090608 74 0.0 0.0 0.00 0.00 0.00 95 1017.9
20260906090103 75 0.0 0.0 0.00 0.00 0.00 96 1017.9
20260906085602 75 0.0 0.0 0.00 0.00 0.00 96 1017.9
20260906085057 75 0.0 0.0 0.00 0.00 0.00 97 1017.9
20260906084551 74 0.0 0.0 0.00 0.00 0.00 97 1017.9
20260906084050 74 0.0 0.0 0.00 0.00 0.00 97 1017.9
20260906083546 74 0.0 0.0 0.00 0.00 0.00 97 1017.9
20260906083045 74 0.0 0.0 0.00 0.00 0.00 97 1017.9
20260906082540 74 0.0 0.0 0.00 0.00 0.00 98 1017.6
20260906082031 74 0.0 0.0 0.00 0.00 0.00 98 1017.2
20260906081526 74 0.0 0.0 0.00 0.00 0.00 97 1017.2
20260906081021 74 0.0 0.0 0.00 0.00 0.00 97 1017.2
20260906080517 74 0.0 0.0 0.00 0.00 0.00 96 1017.2
20260906080013 74 0.0 0.0 0.00 0.00 0.00 96 1017.6
20260906075507 74 0.0 0.0 0.00 0.00 0.00 96 1017.6
20260906075002 73 0.0 0.0 0.00 0.00 0.00 96 1017.2
20260906074457 73 0.0 0.0 0.00 0.00 0.00 96 1017.2
20260906073955 73 0.0 0.0 0.00 0.00 0.00 96 1017.2
20260906073450 73 0.0 0.0 0.00 0.00 0.00 95 1017.2
20260906072947 73 0.0 0.0 0.00 0.00 0.00 94 1017.6
20260906072442 73 0.0 0.0 0.00 0.00 0.00 94 1017.6
20260906071938 73 0.0 0.0 0.00 0.00 0.00 93 1017.2
20260906071433 74 0.0 0.0 0.00 0.00 0.00 91 1017.6
20260906070929 74 0.0 0.0 0.00 0.00 0.00 91 1017.6
20260906070425 74 0.0 0.0 0.00 0.00 0.00 91 1017.6
20260906065921 74 0.0 0.0 0.00 0.00 0.00 92 1017.9
20260906065415 74 0.0 0.0 0.00 0.00 0.00 92 1017.6
20260906064911 74 0.0 0.0 0.00 0.00 0.00 92 1017.6
20260906064407 75 0.0 0.0 0.00 0.00 0.00 93 1017.6
20260906063907 75 0.0 0.0 0.00 0.00 0.00 93 1017.9
20260906063401 75 0.0 0.0 0.00 0.00 0.00 94 1017.9
20260906062856 74 0.0 0.0 0.00 0.00 0.00 94 1017.6
20260906062355 74 0.0 0.0 0.00 0.00 0.00 94 1017.6
20260906061851 74 0.0 0.0 0.00 0.00 0.00 94 1017.9
20260906061348 74 0.0 0.0 0.00 0.00 0.00 93 1017.6
20260906060843 74 0.0 0.0 0.00 0.00 0.00 92 1017.9
20260906060340 74 0.0 0.0 0.00 0.00 0.00 92 1017.9
20260906055836 74 0.0 0.0 0.00 0.00 0.00 91 1017.6
20260906055332 74 0.0 0.0 0.00 0.00 0.00 90 1017.9
20260906054826 74 0.0 0.0 0.00 0.00 0.00 90 1017.9
20260906054321 74 0.0 0.0 0.00 0.00 0.00 90 1017.9
20260906053818 73 0.0 0.0 0.00 0.00 0.00 91 1017.9
20260906053313 73 0.0 0.0 0.00 0.00 0.00 90 1017.9
20260906052808 73 0.0 0.0 0.00 0.00 0.00 90 1018.2
20260906052306 73 0.0 0.0 0.00 0.00 0.00 89 1017.9
20260906051801 73 0.0 0.0 0.00 0.00 0.00 89 1017.9
20260906051300 73 0.0 0.0 0.00 0.00 0.00 89 1018.2
20260906050756 73 0.0 0.0 0.00 0.00 0.00 88 1017.9
20260906050251 74 0.0 0.0 0.00 0.00 0.00 87 1017.9
20260906045749 74 0.0 0.0 0.00 0.00 0.00 87 1017.9
20260906045244 74 0.0 0.0 0.00 0.00 0.00 87 1018.2
20260906044740 73 0.0 0.0 0.00 0.00 0.00 87 1018.2
20260906044235 73 0.0 0.0 0.00 0.00 0.00 87 1017.6
20260906043731 73 0.0 0.0 0.00 0.00 0.00 86 1017.9
20260906043227 73 0.0 0.0 0.00 0.00 0.00 86 1017.6
20260906042727 73 0.0 0.0 0.00 0.00 0.00 86 1017.6
20260906042226 73 0.0 0.0 0.00 0.00 0.00 85 1017.9
20260906041721 74 0.0 0.0 0.00 0.00 0.00 84 1017.6
20260906041217 74 0.0 0.0 0.00 0.00 0.00 84 1017.6
20260906040712 74 0.0 0.0 0.00 0.00 0.00 83 1017.6
20260906040207 74 0.0 0.0 0.00 0.00 0.00 83 1017.6
20260906035704 74 0.0 0.0 0.00 0.00 0.00 83 1017.9
20260906035159 74 0.0 0.0 0.00 0.00 0.00 83 1017.9
20260906034658 73 0.0 0.0 0.00 0.00 0.00 84 1017.9
20260906034154 73 0.0 0.0 0.00 0.00 0.00 84 1017.9
20260906033650 73 0.0 0.0 0.00 0.00 0.00 84 1017.9
20260906033149 73 0.0 0.0 0.00 0.00 0.00 84 1017.6
20260906032646 73 0.0 0.0 0.00 0.00 0.00 83 1017.6
20260906032146 73 0.0 0.0 0.00 0.00 0.00 83 1017.2
20260906031641 73 0.0 0.0 0.00 0.00 0.00 82 1017.9
20260906031137 73 0.0 0.0 0.00 0.00 0.00 81 1017.6
20260906030636 74 0.0 0.0 0.00 0.00 0.00 80 1017.9
20260906030131 74 0.0 0.0 0.00 0.00 0.00 80 1018.2
20260906025630 74 0.0 0.0 0.00 0.00 0.00 79 1017.9
20260906025130 74 0.0 0.0 0.00 0.00 0.00 79 1017.6
20260906024624 74 0.0 0.0 0.00 0.00 0.00 79 1017.6
20260906024119 74 0.0 0.0 0.00 0.00 0.00 78 1017.6
20260906023609 74 0.0 0.0 0.00 0.00 0.00 77 1017.6
20260906023104 74 0.0 0.0 0.00 0.00 0.00 76 1017.6
20260906022559 75 0.0 0.0 0.00 0.00 0.00 75 1017.2
20260906022055 75 0.0 0.0 0.00 0.00 0.00 75 1017.6
20260906021550 75 0.0 0.0 0.00 0.00 0.00 74 1017.6
20260906021048 76 0.0 0.0 0.00 0.00 0.00 74 1017.2
20260906020543 76 0.0 0.0 0.00 0.00 0.00 73 1017.2
20260906020043 76 0.0 0.0 0.00 0.00 0.00 72 1017.6
20260906015542 76 0.0 0.0 0.00 0.00 0.00 71 1017.2
20260906015041 76 0.0 0.0 0.00 0.00 0.00 71 1017.2
20260906014536 77 0.0 0.0 0.00 0.00 0.00 70 1017.2
20260906014032 77 0.0 0.0 0.00 0.00 0.00 70 1017.2
20260906013527 77 0.0 0.0 0.00 0.00 0.00 69 1017.2
20260906013023 77 0.0 0.0 0.00 0.00 0.00 69 1017.2
20260906012518 78 0.0 0.0 0.00 0.00 0.00 69 1016.9
20260906012017 78 0.0 0.0 0.00 0.00 0.00 69 1016.9
20260906011514 78 0.0 0.0 0.00 0.00 0.00 68 1016.9
20260906011013 79 0.0 0.0 0.00 0.00 0.00 68 1016.9
20260906010509 79 0.0 0.0 0.00 0.00 0.00 68 1016.9
20260906010006 79 0.0 0.0 0.00 0.00 0.00 68 1017.2
20260906005504 79 0.0 0.0 0.00 0.00 0.00 67 1017.2
20260906005003 80 0.0 0.0 0.00 0.00 0.00 66 1017.2
20260906004457 80 0.0 0.0 0.00 0.00 0.00 64 1017.2
20260906003952 81 0.0 0.0 0.00 0.00 0.00 62 1016.9
20260906003448 81 0.0 0.0 0.00 0.00 0.00 60 1016.9
20260906002943 82 0.0 0.0 0.00 0.00 0.00 59 1016.9
20260906002443 82 0.0 0.0 0.00 0.00 0.00 58 1016.9
20260906001938 83 0.0 0.0 0.00 0.00 0.00 57 1016.5
20260906001434 83 0.0 0.0 0.00 0.00 0.00 56 1016.5
20260906000928 83 0.0 0.0 0.00 0.00 0.00 55 1016.5
20260906000425 84 0.0 0.0 0.00 0.00 0.00 54 1016.5
20260905235918 84 0.0 0.0 0.00 0.00 0.00 52 1016.5
20260905235413 85 0.0 0.0 0.00 0.00 0.00 51 1016.5
20260905234908 85 0.0 0.0 0.00 0.00 0.00 50 1016.5
20260905234403 86 0.0 0.0 0.00 0.00 0.00 51 1016.1
20260905233858 86 0.0 0.0 0.00 0.00 0.00 50 1016.1
20260905233353 86 0.0 0.0 0.00 0.00 0.00 51 1016.1
20260905232852 86 0.0 0.0 0.00 0.00 0.00 50 1016.1
20260905232349 87 0.0 0.0 0.00 0.00 0.00 49 1016.1
20260905231844 87 0.0 0.0 0.00 0.00 0.00 49 1016.1
20260905231338 87 0.0 0.0 0.00 0.00 0.00 48 1016.1
20260905230835 87 0.0 0.0 0.00 0.00 0.00 48 1016.1
20260905230333 87 0.0 0.0 0.00 0.00 0.00 48 1016.1
20260905225832 87 0.0 0.0 0.00 0.00 0.00 48 1016.1
20260905225327 87 0.0 0.0 0.00 0.00 0.00 47 1016.1
20260905224821 87 0.0 0.0 0.00 0.00 0.00 47 1016.1
20260905224317 87 0.0 0.0 0.00 0.00 0.00 47 1016.1
20260905223812 87 0.0 0.0 0.00 0.00 0.00 47 1015.8
20260905223310 87 0.0 0.0 0.00 0.00 0.00 47 1016.1
20260905222804 87 0.0 0.0 0.00 0.00 0.00 47 1016.1
20260905222306 87 0.0 0.0 0.00 0.00 0.00 47 1015.8
20260905221800 87 0.0 0.0 0.00 0.00 0.00 47 1015.8
20260905221256 87 0.0 0.0 0.00 0.00 0.00 47 1016.1
20260905220752 87 0.0 0.0 0.00 0.00 0.00 47 1016.1
20260905220248 88 0.0 0.0 0.00 0.00 0.00 47 1016.1
20260905215747 88 0.0 0.0 0.00 0.00 0.00 47 1016.1
20260905215243 88 0.0 0.0 0.00 0.00 0.00 47 1016.5
20260905214738 88 0.0 0.0 0.00 0.00 0.00 47 1016.1
20260905214234 88 0.0 0.0 0.00 0.00 0.00 47 1016.1
20260905213729 88 0.0 0.0 0.00 0.00 0.00 48 1016.1
20260905213226 88 0.0 0.0 0.00 0.00 0.00 47 1015.8
20260905212720 88 0.0 0.0 0.00 0.00 0.00 46 1016.1
20260905212219 88 0.0 0.0 0.00 0.00 0.00 48 1016.1
20260905211714 88 0.0 0.0 0.00 0.00 0.00 46 1016.1
20260905211209 88 0.0 0.0 0.00 0.00 0.00 47 1015.8
20260905210706 88 0.0 0.0 0.00 0.00 0.00 46 1016.1
20260905210205 88 0.0 0.0 0.00 0.00 0.00 47 1015.8
20260905205704 88 0.0 0.0 0.00 0.00 0.00 47 1015.8
20260905205159 88 0.0 0.0 0.00 0.00 0.00 48 1016.1
20260905204658 88 0.0 0.0 0.00 0.00 0.00 48 1015.8
20260905204153 88 0.0 0.0 0.00 0.00 0.00 50 1016.1
20260905203648 88 0.0 0.0 0.00 0.00 0.00 50 1016.1
20260905203144 88 0.0 0.0 0.00 0.00 0.00 50 1016.1
20260905202639 88 0.0 0.0 0.00 0.00 0.00 50 1016.1
20260905202135 87 0.0 0.0 0.00 0.00 0.00 50 1016.1
20260905201630 87 0.0 0.0 0.00 0.00 0.00 50 1016.1
20260905201129 87 0.0 0.0 0.00 0.00 0.00 51 1016.1
20260905200625 87 0.0 0.0 0.00 0.00 0.00 51 1015.8
20260905200121 87 0.0 0.0 0.00 0.00 0.00 51 1016.1
20260905195619 87 0.0 0.0 0.00 0.00 0.00 52 1016.1
20260905195114 87 0.0 0.0 0.00 0.00 0.00 52 1016.1
20260905194608 87 0.0 0.0 0.00 0.00 0.00 53 1016.1
20260905194108 87 0.0 0.0 0.00 0.00 0.00 53 1016.1
20260905193602 86 0.0 0.0 0.00 0.00 0.00 53 1016.1
20260905193058 86 0.0 0.0 0.00 0.00 0.00 54 1016.1
20260905192553 86 0.0 0.0 0.00 0.00 0.00 53 1016.1